FENGYUN1
1 25730U 99025A 15203.84816840 .00001285 00000-0 70456-3 0 9993
2 25730 098.9435 168.6978 0022485 046.4740 343.5857 14.13510046834092
OKEAN-0
1 25860U 99039A 15204.52675730 .00000199 00000-0 36396-4 0 9998
2 25860 098.0972 172.6422 0001234 109.6475 003.4892 14.76092402861347
NOAA-16
1 26536U 00055A 15204.48904279 -.00000006 00000-0 20919-4 0 9999
2 26536 098.9400 270.4292 0011438 127.0776 233.1443 14.13103145764782
NOAA-17
1 27453U 02032A 15204.24286015 .00000013 00000-0 23203-4 0 9996
2 27453 098.3422 188.4588 0013033 078.3696 281.8946 14.24892556679794
NOAA-18
1 28654U 05018A 15203.98325533 .00000108 00000-0 84005-4 0 9998
2 28654 099.1855 197.5019 0013551 217.0564 142.9672 14.12220096524128
NOAA-19
1 33591U 09005A 15203.88140474 .00000109 00000-0 84284-4 0 9992
2 33591 098.9918 153.8498 0015152 070.6990 289.5818 14.11958648332523
HUBBLE
1 20580U 90037B 15204.57092711 .00000799 00000-0 39845-4 0 9996
2 20580 028.4709 274.1833 0002433 256.9614 103.0692 15.07571922185307
ISS
1 25544U 98067A 15204.65214008 .00000733 00000-0 17679-4 0 9995
2 25544 051.6459 261.9377 0001658 289.7698 172.4006 15.55204382953716
CO-58
1 28895U 05043F 15204.51400202 .00000288 00000-0 65040-4 0 9997
2 28895 097.8218 030.3885 0017082 177.2576 182.8723 14.62843479518901
FALCON
1 30776U 07006E 15204.27746578 .00004501 00000-0 17880-3 0 9991
2 30776 035.4262 134.8117 0002906 269.1783 223.7294 15.24844653461816
MAST
1 31126U 07012K 15203.86408443 .00000136 00000-0 39381-4 0 9999
2 31126 097.9634 170.2838 0090683 183.7122 209.1977 14.56097833438682
CAPE1
1 31130U 07012P 15204.47931078 .00000241 00000-0 62284-4 0 9992
2 31130 097.9851 168.1365 0096512 201.9249 157.7807 14.55552014438168
COMPASS
1 32787U 08021E 15204.31733876 .00000889 00000-0 95587-4 0 9991
2 32787 097.6487 250.8766 0011551 296.0304 063.9724 14.90893725391890
AAUSAT2
1 32788U 08021F 15204.42001965 .00001272 00000-0 13094-3 0 9990
2 32788 097.6496 252.5513 0010953 291.7776 068.2277 14.91953810392008
DO-64
1 32789U 08021G 15204.48414138 .00003122 00000-0 25336-3 0 9995
2 32789 097.6778 264.0785 0010134 282.8882 202.5616 15.00345262392525
CO-66
1 32791U 08021J 15204.11408779 .00000781 00000-0 88867-4 0 9999
2 32791 097.6483 248.4175 0012446 304.2950 055.7089 14.88909226391660
RS-30
1 32953U 08025A 15204.69581968 .00000010 00000-0 -13620-7 0 9992
2 32953 082.5044 311.5352 0018565 004.7474 355.3781 12.43062021325146
METEOR-M
1 35865U 09049A 15204.54849531 .00000027 00000-0 31450-4 0 9996
2 35865 098.4980 243.5875 0002896 035.6120 135.2809 14.22039781303374
RS-38
1 35869U 09049E 15204.68218227 .00000009 00000-0 23018-4 0 9998
2 35869 098.4878 243.3265 0004938 018.4392 341.6964 14.22303603303444
JUGNU
1 37839U 11058B 15204.52781810 .00000320 00000-0 29083-4 0 9990
2 37839 019.9624 342.2086 0019073 086.6639 339.6069 14.12478521195361
SRMSAT
1 37841U 11058D 15204.81879115 .00000309 00000-0 25071-4 0 9991
2 37841 019.9731 007.8914 0011934 014.8597 122.1867 14.10488665195124
RAX-2
1 37853U 11061D 15204.19787336 .00002775 00000-0 17525-3 0 9995
2 37853 101.7082 072.9489 0194400 330.5380 141.7094 14.96516926202498
AUBIESAT
1 37854U 11061E 15204.18766110 .00002820 00000-0 17290-3 0 9992
2 37854 101.7140 076.6507 0185208 325.1427 157.2781 14.98701673202610
HRBE
1 37855U 11061F 15204.33710626 .00002583 00000-0 15938-3 0 9994
2 37855 101.7136 075.3681 0193879 327.8999 031.0520 14.97517196202569
HORYU-2
1 38340U 12025D 15204.76385461 .00000594 00000-0 97663-4 0 9993
2 38340 098.3159 175.6425 0011644 347.2590 012.8322 14.74396096170927
RS-40
1 38735U 12041C 15204.82783069 .00000040 00000-0 21992-3 0 9999
2 38735 082.4746 037.1313 0017582 099.2443 261.0621 12.42569389135467
PROITERES
1 38756U 12047B 15204.74234996 .00000332 00000-0 56215-4 0 9990
2 38756 098.2225 304.6529 0012288 174.8671 185.2661 14.75869721154394
BEESAT-3
1 39134U 13015E 15204.12116312 .00003126 00000-0 18725-3 0 9997
2 39134 064.8730 302.5112 0029400 247.5103 112.2907 15.12600707124133
BEESAT-2
1 39136U 13015G 15204.48089918 .00002496 00000-0 15881-3 0 9998
2 39136 064.8738 304.0612 0030097 246.0812 113.7157 15.10902673124149
ZACUBE-1
1 39417U 13066B 15203.83344229 .00000558 00000-0 78661-4 0 9996
2 39417 097.7277 265.0089 0060800 021.9100 338.4692 14.79808027 89909
TRITON-1
1 39427U 13066M 15203.61728378 .00000408 00000-0 74193-4 0 9994
2 39427 097.7124 252.2788 0116842 054.5511 306.6534 14.66722202 89066
DELFIN3XT
1 39428U 13066N 15203.78865932 .00000774 00000-0 13532-3 0 9996
2 39428 097.7128 250.6837 0125375 059.0859 302.2601 14.65509738 88954
GOMX-1
1 39430U 13066Q 15204.85646262 .00000591 00000-0 11742-3 0 9999
2 39430 097.7027 245.3168 0155033 074.4478 287.3762 14.58132605 88728
MO-76
1 39436U 13066W 15204.63568111 .00012401 00000-0 80278-3 0 9990
2 39436 097.7428 281.0370 0020240 342.0926 017.9586 15.08135308 90985
LO-74
1 39440U 13066AA 15204.16662462 .00000533 00000-0 83063-4 0 9996
2 39440 097.7217 260.3603 0082685 032.5718 328.0554 14.74619785 89635
PUCPSAT-1
1 39442U 13066AC 15204.18066622 .00000838 00000-0 94726-4 0 9992
2 39442 097.7375 273.3756 0033023 007.0901 353.0777 14.88733417 89222
SPROUT
1 39770U 14029E 15203.78692653 .00001095 00000-0 13807-3 0 9996
2 39770 097.8717 300.1222 0011218 087.9584 272.2893 14.83924452 62914
POPSAT-HIP1
1 40028U 14033U 15204.79150781 .00000905 00000-0 10684-3 0 9991
2 40028 097.9507 105.1891 0015823 063.8802 296.4034 14.87119807 59226
EO-80
1 40032U 14033Y 15204.66044438 .00000716 00000-0 86491-4 0 9993
2 40032 097.9482 104.6994 0013663 061.5264 298.7326 14.86801251 59205
VELOX-1
1 40057U 14034E 15204.74391815 .00000851 00000-0 13143-3 0 9997
2 40057 098.2141 283.4448 0012741 118.8822 241.3650 14.75940787 57275
DAURIA DX 1
1 40071U 14037C 15204.82835576 .00000358 00000-0 54284-4 0 9996
2 40071 098.3544 277.7491 0009833 118.0184 242.2011 14.80446163 56213
UKUBE-1
1 40074U 14037F 15204.75195966 .00000832 00000-0 11137-3 0 9999
2 40074 098.3562 278.5673 0005992 121.1840 238.9940 14.82301899 56258
HODOYOSHI-1
1 40299U 14070B 15204.76456097 .00001612 00000-0 78881-4 0 9998
2 40299 097.4545 285.8263 0013315 013.9247 084.5053 15.19572489 39371
CHUBUSAT-1
1 40300U 14070C 15204.75639777 .00001864 00000-0 94793-4 0 9997
2 40300 097.4520 284.9992 0022361 012.0727 086.6786 15.17889294 39324
QSAT-EOS
1 40301U 14070D 15204.74370840 .00003433 00000-0 17255-3 0 9991
2 40301 097.4476 284.2979 0032011 010.9965 089.0318 15.17492552 39287
TSUBAME
1 40302U 14070E 15204.75567163 .00001788 00000-0 10211-3 0 9995
2 40302 097.4454 282.9548 0043328 014.2291 346.0160 15.13223894 39203
FIREBIRD FU3
1 40377U 15003B 15204.80975712 .00006342 00000-0 31352-3 0 9993
2 40377 099.1153 245.0633 0157703 133.4487 227.9982 15.07998534 26072
FIREBIRD FU4
1 40378U 15003C 15204.80723983 .00006591 00000-0 32524-3 0 9993
2 40378 099.1154 245.0676 0157918 133.4224 228.0269 15.08011018 26072
GRIFEX
1 40379U 15003D 15204.79562261 .00005653 00000-0 28523-3 0 9994
2 40379 099.1171 244.9295 0159140 134.8620 226.5657 15.07223941 26063
LAMBDA-SAT
1 40458U 98067GB 15136.30676273 .20783109 12527-4 14817-2 0 9995
2 40458 051.6075 233.7697 0010355 318.5347 043.1720 16.39926603 21161
NO-84
1 40654U 15204.14615040 .00007969 00000-0 21149-3 0 00736
2 40654 054.9935 064.4984 0242882 338.9473 020.1709 15.14642832009626
NO-83
1 40655U 15204.25871732 .00011226 00000-0 28840-3 0 00760
2 40655 054.9886 063.7898 0239771 339.4439 019.7053 15.15564344009649
